Погода Красная Гора

Погода Красная Гора : погода сейчас, прогноз погоды и архив. Всё, что Вы хотите узнать о погоде Красная Гора!

Хотите узнать прогноз погоды Красная Гора? Тогда Вам сюда: Погода Красная Гора

Поиск расширенной информации на нашем сайте:

Другие новости

Новости СМИ2

Главная страница сайта

Новости сайта

03.07.2017

Напоминаем, что на нашем специализированном сайте Метеоцентр.Азия вы можете получить высокодетализированные автоматические прогнозы погоды по пунктам России, СНГ и мира в авиационном формате (включающие направление и скорость ветра, видимость, явления погоды, количество и форму облачности, нижнюю и верхнюю границу облачности).

Рекомендуем: Золотая инвестиционная монета буффало.

Погода Красная Гора - сегодня

Время (UTC), дата Ветер
(°,м/с) 
Видим.   Явления Облачность Т
(°С)
Тd
(°С)
f(%) Тe
(°С)
Pmin
(гПа)
dP
(гПа)
Po
(мм)
O2
(г/м3)
Тmin Tmax R s Состояние
почвы
03 15.08.17 340 (С) 10 км    8/8 1000 м 
[Sc]
+16.3 +14 86 +24  1021.9  0.6  753  284  +16.1         
06 15.08.17 030 (СВ) 10 км    8/8 1000 м 
[Sc]
+19.4 +15 76 +29  1022.9  1.2  754  281  +16.1         
09 15.08.17 020 (С) 10 км    4/3 1000 м средняя 
[Cu med, cong|Ac trans]
+23.4 +15.8 62 +33  1023  0.3  754  277           
12 15.08.17 030 (СВ) 10 км    4/4 1000 м 
[Cu med, cong]
+24.9 +16 58 +35  1022.6  -0.3  754  275           
15 15.08.17 030 (СВ) 10 км    6/3 600 м кучево-дожд., средняя 
[Cb cap|Ac trans]
+24.4 +15.7 58 +34  1022.7  0.1  754  276           
21 15.08.17 350 (С) 11000 м    ясно 
+17.2 +14.4 84 +26  1024.1  0.6  755  283           
00 16.08.17 020 (С) 10 км    4/0 средняя 
[Ac trans]
+15.7 +13.2 85 +22  1024.3  0.1  755  285           
03 16.08.17 020 (С) 10 км    10/3 600 м кучево-дожд., средняя 
[Cb cap|As op]
+15.9 +12.3 79 +21  1024  -0.3  755  285  +15.6         
06 16.08.17 070 (В) 10 км    8/3 600 м кучево-дожд., средняя 
[Cb cap|Ac trans]
+19 +13.6 71 +26  1024.1  0.4  755  282  +15.6         
09 16.08.17 100 (В) 10 км    8/4 600 м кучево-дожд., средняя 
[Cb cap|Ac trans]
+24.3 +16.9 63 +36  1023.5  -0.3  755  276           
12 16.08.17 070 (В) 10 км    8/4 600 м кучево-дожд., средняя 
[Cb cap|Ac trans]
+27.4 +15.1 47 +36  1022.7  -0.7  754  273           
15 16.08.17 100 (В) 10 км    4/0 средняя 
[Ac trans]
+26.9 +13.8 44 +33  1022.2  -0.5  754  274           
18 16.08.17 060 (СВ) 10 км    ясно 
+20.8 +15.1 70 +29  1023.1  0.5  754  279    +27.9       
21 16.08.17 060 (СВ) 12000 м    ясно 
+17.4 +13.7 79 +25  1023.5  0.3  755  283           
00 17.08.17 050 (СВ) 11000 м    ясно 
+15.4 +13.1 86 +22  1023.3  -0.4  754  285           
03 17.08.17 030 (СВ) 4000 м  дымка  1/0 верхняя 
[Ci fib]
+13.8 +12.3 91 +19  1023  -0.3  754  287  +13.7         
06 17.08.17 060 (СВ) 10 км    3/0 верхняя 
[Ci fib]
+20.2 +14.4 69 +28  1023.1  0.3  754  280  +13.7         
09 17.08.17 050 (СВ) 10 км    3/0 верхняя 
[Ci fib]
+26.3 +15.3 51 +35  1022.5  -0.1  754  274           
12 17.08.17 130 (ЮВ) 10 км    6/4 1000 м верхняя 
[Cu med, cong|Ci fib]
+28.8 +10.8 33 +31  1021.1  -1.1  753  273           
15 17.08.17 030 (СВ) 10 км    6/3 600 м верхняя 
[Cu med, cong|Ci fib]
+28 +13.6 41 +34  1020.4  -0.9  753  272           
18 17.08.17 тихо ()   10 км    4/0 средняя 
[Ac trans]
+22.9 +15.8 64 +33  1021.1  0.4  753  277    +30.1       
21 17.08.17 090 (В) 12000 м    ясно 
+20.6 +13.7 65 +27  1021.5  0.2  753  279           
00 18.08.17 100 (В) 12000 м    4/0 средняя 
[Ac trans]
+18.2 +13.3 73 +26  1021.9  0.3  753  282           
03 18.08.17 080 (В) 10 км    4/0 средняя 
[Ac trans]
+15.8 +12.9 83 +22  1022  -0.1  753  284  +15.7         
06 18.08.17 130 (ЮВ) 10 км    4/0 средняя 
[Ac trans]
+22.2 +14 60 +29  1002.2  0.5  754  278  +15.7         
Время (UTC), дата Ветер
(°,м/с) 
Видим.   Явления Облачность Т
(°С)
Тd
(°С)
f(%) Тe
(°С)
Pmin
(гПа)
dP
(гПа)
Po
(мм)
O2
(г/м3)
Тmin Tmax R s Состояние
почвы

Для получения пояснительной информации подведите курсор к названию столбца.

ПОГОДА Красная Гора - архив

Всё, что Вы хотите узнать о погоде Красная Гора - удобно и подробно!

Выберите нужную дату (начиная с 1 января 2015* года) и нажмите кнопку "Найти".
Будут отображены архивные сводки погоды по пункту Красная Гора, начиная с указанной даты.


Отображать данные в формате CSV (для использования в таблицах Excel)


Внимание! Наш архив погоды предназначен исключительно для личного некоммерческого использования в познавательных целях. Если Вам необходимы официальные справки о состоянии погоды (для производственных, юридических, коммерческих и т.п. целей), обращайтесь в органы Росгидромета.

*Примечание: данная дата относится к архиву по метеостанциям СССР (Россия, СНГ, Балтия).
Архив по метеостанциям Зарубежной Европы и Азии (кроме Китая) хранится 10 дней, по другим регионам земного шара (Китай, Африка, Америка, Австралия, Океания) - 1 день.

Красная Гора - район местоположения метеостанции


Название, широта, долгота, высота метеостанции:
Красная Гора 53°ш. 31.6°д. 148 м над ур. моря [Российская Федерация]

Дополнительная информация

В oтличие oт бoльшинства пoгoдных сайтoв мы публикуем пoдрoбную метеoинфoрмацию в детальнoм прoфессиoнальнoм фoрмате.

Характеристики температуры и влажнoсти вoздуха измеряются на высoте 2 м в тени вдали oт зданий и деревьев.
Скoрoсть ветра измеряется на высoте 10 м (на урoвне рoста челoвека скoрoсть ветра ниже в 1.5-2 раза). Если метеoстанция нахoдится в гoрoде или в лесу, тo скoрoсть ветра занижена на 2-4 м/с пo сравнению с oткрытым местoм. Скoрoсть ветра над акватoриями крупных рек и oзёр, а также на вершинах хoлмoв на 2-5 м/с выше, чем в oбычных услoвиях.
Атмoсфернoе давление в разных тoчках местнoсти мoжет значительнo oтличаться oт давления на метеoстанции, в зависимoсти oт услoвий рельефа (при пoдъёме на 10 м давление пoнижается примернo на 1 мм рт.ст.).